Weather History for Algiers Airport, Algeria

Change the Weather History Date:

Wednesday, February 13, 2013

  Actual Average Record
Temperature  
Mean Temperature 49 °F -  
Max Temperature 58 °F - - ()
Min Temperature 40 °F - - ()
Degree Days  
Heating Degree Days 16    
Moisture  
Dew Point 42 °F    
Average Humidity 77    
Maximum Humidity 93    
Minimum Humidity 18    
Precipitation  
Precipitation 0.00 in - - ()
Sea Level Pressure  
Sea Level Pressure 30.08 in    
Wind  
Wind Speed 8 mph ()    
Max Wind Speed 24 mph    
Max Gust Speed -    
Visibility 7.1 miles    
Events Rain    
T = Trace of Precipitation, MM = Missing Value Source: Averaged Metar Reports

Daily Weather History Graph

Daily Weather History Graph

Search for Another Location

Airport:

Trip Planner

Search our weather history database for the weather conditions in past years. The results will help you decide how hot, cold, wet, or windy it might be!

Date:

Astronomy

Feb. 13, 2013 Rise Set
Actual Time 7:37 AM CET 6:25 PM CET
Civil Twilight 7:10 AM CET 6:52 PM CET
Nautical Twilight 6:40 AM CET 7:22 PM CET
Astronomical Twilight 6:10 AM CET 7:52 PM CET
Moon 9:05 AM CET (2/13) 10:04 PM CET (2/13)
Length of Visible Light 11h 41m
Length of Day
10h 48m
Waxing Crescent, 12% of the Moon is Illuminated
Feb 13
Waxing Crescent
Feb 17
First Quarter
Feb 25
Full
Mar 4
Last Quarter
Mar 11
New

Hourly Weather History & Observations

Time (CET) Temp. Windchill Dew Point Humidity Pressure Visibility Wind Dir Wind Speed Gust Speed Precip Events Conditions
12:30 AM 42.8 °F 39.3 °F 39.2 °F 87% 30.09 in 6.2 mi SW 5.8 mph - N/A   Partly Cloudy
1:00 AM 41 °F - 39 °F 90% 30.09 in 12 mi SSW 5.8 mph - -   Partly Cloudy
1:00 AM 41.0 °F 37.1 °F 39.2 °F 93% 30.09 in 6.2 mi SSW 5.8 mph - N/A   Partly Cloudy
1:30 AM 41.0 °F 38.0 °F 39.2 °F 93% 30.06 in 6.2 mi SSW 4.6 mph - N/A   Partly Cloudy
2:00 AM 41.0 °F 37.1 °F 39.2 °F 93% 30.06 in 6.2 mi SW 5.8 mph - N/A   Partly Cloudy
2:30 AM 42.8 °F 41.1 °F 39.2 °F 87% 30.06 in 6.2 mi SW 3.5 mph - N/A   Partly Cloudy
3:00 AM 42.8 °F 41.1 °F 39.2 °F 87% 30.06 in 6.2 mi SSW 3.5 mph - N/A   Partly Cloudy
3:30 AM 42.8 °F 39.3 °F 39.2 °F 87% 30.04 in 6.2 mi SSW 5.8 mph - N/A   Scattered Clouds
4:00 AM 44 °F - 39 °F 76% 30.05 in 12 mi SW 8.1 mph - -   Scattered Clouds
4:00 AM 44.6 °F 40.2 °F 39.2 °F 81% 30.04 in 6.2 mi SW 8.1 mph - N/A   Mostly Cloudy
4:30 AM 42.8 °F 38.6 °F 37.4 °F 81% 30.04 in 6.2 mi SW 6.9 mph - N/A   Mostly Cloudy
5:00 AM 42.8 °F 40.1 °F 39.2 °F 87% 30.04 in 6.2 mi SW 4.6 mph - N/A   Mostly Cloudy
5:30 AM 42.8 °F 39.3 °F 39.2 °F 87% 30.04 in 6.2 mi West 5.8 mph - N/A   Mostly Cloudy
6:00 AM 46.4 °F 41.9 °F 42.8 °F 87% 30.04 in 6.2 mi North 9.2 mph - N/A Rain Light Rain
6:30 AM 46.4 °F 43.5 °F 41.0 °F 81% 30.04 in 6.2 mi SW 5.8 mph - N/A   Mostly Cloudy
7:00 AM 44 °F - 40 °F 82% 30.04 in 12 mi SW 6.9 mph - -   Partly Cloudy
7:00 AM 44.6 °F 40.7 °F 41.0 °F 87% 30.04 in 6.2 mi SW 6.9 mph - N/A   Scattered Clouds
7:30 AM 44.6 °F 41.4 °F 41.0 °F 87% 30.04 in 6.2 mi WSW 5.8 mph - N/A   Scattered Clouds
8:00 AM 46.4 °F 42.4 °F 41.0 °F 81% 30.04 in 6.2 mi WSW 8.1 mph - N/A   Scattered Clouds
8:30 AM 46.4 °F 42.9 °F 41.0 °F 81% 30.04 in 6.2 mi SW 6.9 mph - N/A   Scattered Clouds
9:00 AM 50.0 °F - 42.8 °F 76% 30.04 in 6.2 mi WSW 8.1 mph - N/A   Scattered Clouds
9:30 AM 50.0 °F - 42.8 °F 76% 30.04 in 6.2 mi SW 8.1 mph - N/A   Scattered Clouds
10:00 AM 52 °F - 44 °F 66% 30.06 in 12 mi SW 9.2 mph - -   Partly Cloudy
10:00 AM 51.8 °F - 44.6 °F 76% 30.04 in 6.2 mi SW 9.2 mph - N/A   Scattered Clouds
10:30 AM 53.6 °F - 46.4 °F 77% 30.06 in 6.2 mi SW 9.2 mph - N/A   Scattered Clouds
11:00 AM 55.4 °F - 46.4 °F 72% 30.06 in 6.2 mi SW 8.1 mph - N/A   Scattered Clouds
11:30 AM 55.4 °F - 41.0 °F 58% 30.06 in 6.2 mi WNW 17.3 mph - N/A   Scattered Clouds
12:00 PM 55.4 °F - 44.6 °F 67% 30.06 in 6.2 mi WNW 19.6 mph - N/A   Scattered Clouds
12:30 PM 57.2 °F - 42.8 °F 59% 30.06 in 6.2 mi WNW 16.1 mph - N/A   Scattered Clouds
1:00 PM 58 °F - 45 °F 51% 30.06 in 19 mi WNW 16.1 mph - -   Partly Cloudy
1:00 PM 57.2 °F - 44.6 °F 63% 30.06 in 6.2 mi WNW 16.1 mph - N/A   Scattered Clouds
1:30 PM 57.2 °F - 42.8 °F 59% 30.04 in 6.2 mi NW 19.6 mph - N/A   Scattered Clouds
2:00 PM 59.0 °F - 44.6 °F 59% 30.04 in 6.2 mi WNW 19.6 mph - N/A   Scattered Clouds
2:30 PM 57.2 °F - 42.8 °F 59% 30.04 in 6.2 mi WNW 17.3 mph - N/A   Mostly Cloudy
3:00 PM 55.4 °F - 42.8 °F 63% 30.04 in 6.2 mi WNW 20.7 mph - N/A   Mostly Cloudy
3:30 PM 55.4 °F - 42.8 °F 63% 30.06 in 6.2 mi WNW 18.4 mph - N/A   Mostly Cloudy
4:00 PM 52 °F - 43 °F 62% 30.08 in 9 mi WNW 24.2 mph - - Rain Light Rain
4:00 PM 51.8 °F - 42.8 °F 71% 30.06 in 6.2 mi WNW 24.2 mph - N/A Rain Light Rain
4:30 PM 53.6 °F - 44.6 °F 72% 30.06 in 6.2 mi WNW 13.8 mph - N/A   Mostly Cloudy
5:00 PM 51.8 °F - 44.6 °F 76% 30.09 in 6.2 mi WNW 5.8 mph - N/A   Mostly Cloudy
5:30 PM 53.6 °F - 44.6 °F 72% 30.09 in 6.2 mi WNW 5.8 mph - N/A   Scattered Clouds
6:00 PM 53.6 °F - 44.6 °F 72% 30.09 in 6.2 mi NW 13.8 mph - N/A   Scattered Clouds
6:30 PM 51.8 °F - 42.8 °F 71% 30.09 in 6.2 mi NW 12.7 mph - N/A   Partly Cloudy
7:00 PM 51 °F - 20 °F 18% 30.13 in 12 mi WNW 9.2 mph - -   Partly Cloudy
7:00 PM 51.8 °F - 42.8 °F 71% 30.12 in 6.2 mi WNW 9.2 mph - N/A   Scattered Clouds
7:30 PM 50.0 °F - 44.6 °F 82% 30.12 in 6.2 mi West 6.9 mph - N/A   Scattered Clouds
8:00 PM 48.2 °F - 42.8 °F 82% 30.12 in 6.2 mi SW 4.6 mph - N/A   Scattered Clouds
8:30 PM 48.2 °F - 44.6 °F 87% 30.12 in 6.2 mi SW 5.8 mph - N/A   Scattered Clouds
9:00 PM 46.4 °F 42.9 °F 42.8 °F 87% 30.15 in 6.2 mi SSW 6.9 mph - N/A   Scattered Clouds
9:30 PM 44.6 °F 41.4 °F 42.8 °F 93% 30.15 in 6.2 mi SSW 5.8 mph - N/A   Scattered Clouds
10:00 PM 45 °F - 43 °F 89% 30.18 in 12 mi SW 5.8 mph - -   Partly Cloudy
10:00 PM 44.6 °F 41.4 °F 42.8 °F 93% 30.15 in 6.2 mi SSW 5.8 mph - N/A   Scattered Clouds
10:30 PM 44.6 °F 41.4 °F 42.8 °F 93% 30.15 in 6.2 mi SW 5.8 mph - N/A   Scattered Clouds
11:00 PM 44.6 °F 42.2 °F 42.8 °F 93% 30.18 in 6.2 mi SW 4.6 mph - N/A   Scattered Clouds
11:30 PM 44.6 °F 43.1 °F 41.0 °F 87% 30.18 in 6.2 mi SSW 3.5 mph - N/A   Scattered Clouds